TimeCST,TemperatureF,Dew PointF,Humidity,Sea Level PressureIn,VisibilityMPH,Wind Direction,Wind SpeedMPH,Gust SpeedMPH,PrecipitationIn,Events,Conditions,WindDirDegrees,DateUTC
12:15 AM,-8.7,-13.7,79,30.28,10.0,Calm,Calm,-,N/A,,Clear,0,2014-01-08 06:15:00
12:35 AM,-8.9,-13.7,79,30.27,10.0,NNW,5.8,-,N/A,,Clear,340,2014-01-08 06:35:00
12:55 AM,-8.9,-13.7,79,30.28,10.0,Calm,Calm,-,N/A,,Clear,0,2014-01-08 06:55:00
1:15 AM,-7.6,-12.5,79,30.28,10.0,Calm,Calm,-,N/A,,Clear,0,2014-01-08 07:15:00
1:35 AM,-8.1,-13.4,78,30.28,10.0,NNW,4.6,-,N/A,,Clear,340,2014-01-08 07:35:00
1:55 AM,-8.7,-13.2,81,30.29,10.0,NW,3.5,-,N/A,,Clear,320,2014-01-08 07:55:00
2:15 AM,-9.0,-14.1,79,30.30,10.0,Calm,Calm,-,N/A,,Clear,0,2014-01-08 08:15:00
2:35 AM,-9.4,-14.3,79,30.30,10.0,NNW,3.5,-,N/A,,Clear,330,2014-01-08 08:35:00
2:55 AM,-7.2,-12.1,79,30.31,10.0,Calm,Calm,-,N/A,,Clear,0,2014-01-08 08:55:00
3:15 AM,-7.8,-13.0,78,30.32,10.0,North,3.5,-,N/A,,Clear,360,2014-01-08 09:15:00
3:35 AM,-8.9,-14.1,78,30.32,10.0,Calm,Calm,-,N/A,,Clear,0,2014-01-08 09:35:00
3:55 AM,-8.7,-13.7,79,30.34,10.0,Calm,Calm,-,N/A,,Clear,0,2014-01-08 09:55:00
4:15 AM,-8.5,-13.9,77,30.34,10.0,North,3.5,-,N/A,,Clear,350,2014-01-08 10:15:00
4:35 AM,-9.8,-14.8,78,30.34,10.0,NW,3.5,-,N/A,,Clear,310,2014-01-08 10:35:00
4:55 AM,-8.5,-13.7,78,30.35,10.0,NNW,3.5,-,N/A,,Clear,330,2014-01-08 10:55:00
5:15 AM,-10.8,-15.9,78,30.34,10.0,Calm,Calm,-,N/A,,Clear,0,2014-01-08 11:15:00
5:35 AM,-10.5,-15.7,78,30.35,10.0,Calm,Calm,-,N/A,,Clear,0,2014-01-08 11:35:00
5:55 AM,-10.3,-15.3,78,30.36,10.0,Calm,Calm,-,N/A,,Clear,0,2014-01-08 11:55:00
6:15 AM,-8.9,-14.1,78,30.36,10.0,Calm,Calm,-,N/A,,Scattered Clouds,0,2014-01-08 12:15:00
6:35 AM,-8.3,-13.7,77,30.36,10.0,Calm,Calm,-,N/A,,Scattered Clouds,0,2014-01-08 12:35:00
6:55 AM,-8.5,-13.5,79,30.36,10.0,Calm,Calm,-,N/A,,Mostly Cloudy,0,2014-01-08 12:55:00
7:15 AM,-7.8,-12.8,79,30.38,10.0,Calm,Calm,-,N/A,,Scattered Clouds,0,2014-01-08 13:15:00
7:35 AM,-6.7,-11.9,78,30.39,10.0,Calm,Calm,-,N/A,,Clear,0,2014-01-08 13:35:00
7:55 AM,-6.7,-11.6,79,30.39,10.0,Calm,Calm,-,N/A,,Clear,0,2014-01-08 13:55:00
8:15 AM,-6.0,-11.2,78,30.41,10.0,North,3.5,-,N/A,,Clear,350,2014-01-08 14:15:00
8:35 AM,-4.7,-9.6,80,30.42,10.0,NNW,3.5,-,N/A,,Clear,330,2014-01-08 14:35:00
8:55 AM,-2.4,-7.8,78,30.43,10.0,Calm,Calm,-,N/A,,Clear,0,2014-01-08 14:55:00
9:15 AM,-1.1,-6.9,77,30.43,10.0,Calm,Calm,-,N/A,,Clear,0,2014-01-08 15:15:00
9:35 AM,1.2,-5.3,74,30.44,10.0,Calm,Calm,-,N/A,,Clear,0,2014-01-08 15:35:00
9:55 AM,1.4,-4.9,75,30.44,10.0,Calm,Calm,-,N/A,,Clear,0,2014-01-08 15:55:00
10:15 AM,1.6,-5.6,72,30.45,10.0,Calm,Calm,-,N/A,,Clear,0,2014-01-08 16:15:00
10:35 AM,2.7,-5.3,70,30.44,10.0,Calm,Calm,-,N/A,,Clear,0,2014-01-08 16:35:00
10:55 AM,3.4,-4.9,68,30.44,10.0,Calm,Calm,-,N/A,,Clear,0,2014-01-08 16:55:00
11:15 AM,5.2,-4.2,65,30.43,10.0,Calm,Calm,-,N/A,,Clear,0,2014-01-08 17:15:00
11:35 AM,6.8,-3.8,62,30.43,10.0,Calm,Calm,-,N/A,,Clear,0,2014-01-08 17:35:00
11:55 AM,7.5,-2.9,62,30.42,10.0,SE,3.5,-,N/A,,Clear,140,2014-01-08 17:55:00
12:15 PM,8.1,-1.8,64,30.41,10.0,SE,3.5,-,N/A,,Clear,140,2014-01-08 18:15:00
12:35 PM,8.1,-1.7,65,30.41,10.0,SE,3.5,-,N/A,,Clear,140,2014-01-08 18:35:00
12:55 PM,8.4,-0.9,66,30.41,10.0,SE,3.5,-,N/A,,Clear,140,2014-01-08 18:55:00
1:15 PM,9.5,-0.2,65,30.41,10.0,Calm,Calm,-,N/A,,Clear,0,2014-01-08 19:15:00
1:35 PM,10.4,-1.7,58,30.41,10.0,WNW,3.5,-,N/A,,Clear,300,2014-01-08 19:35:00
1:55 PM,10.9,-2.6,55,30.41,10.0,WNW,6.9,-,N/A,,Clear,300,2014-01-08 19:55:00
2:15 PM,11.3,-2.0,55,30.42,10.0,West,5.8,-,N/A,,Clear,270,2014-01-08 20:15:00
2:35 PM,11.3,-2.2,55,30.43,10.0,WSW,6.9,-,N/A,,Clear,240,2014-01-08 20:35:00
2:55 PM,11.1,-1.5,57,30.44,10.0,WSW,5.8,-,N/A,,Clear,240,2014-01-08 20:55:00
3:15 PM,10.8,-1.7,57,30.44,10.0,WSW,5.8,-,N/A,,Clear,240,2014-01-08 21:15:00
3:35 PM,10.0,-1.3,60,30.45,10.0,SW,6.9,-,N/A,,Clear,230,2014-01-08 21:35:00
3:55 PM,9.5,-1.3,62,30.46,10.0,SW,4.6,-,N/A,,Clear,230,2014-01-08 21:55:00
4:15 PM,9.3,-0.9,63,30.45,10.0,Calm,Calm,-,N/A,,Clear,0,2014-01-08 22:15:00
4:35 PM,9.1,-0.9,64,30.45,10.0,Calm,Calm,-,N/A,,Clear,0,2014-01-08 22:35:00
4:55 PM,7.2,-2.2,66,30.46,10.0,SSW,3.5,-,N/A,,Clear,210,2014-01-08 22:55:00
5:15 PM,5.4,-2.6,70,30.46,10.0,SSW,3.5,-,N/A,,Clear,200,2014-01-08 23:15:00
5:35 PM,4.8,-2.4,72,30.47,10.0,SSW,4.6,-,N/A,,Clear,200,2014-01-08 23:35:00
5:55 PM,3.2,-3.5,74,30.47,10.0,SSW,3.5,-,N/A,,Clear,200,2014-01-08 23:55:00
6:15 PM,5.5,-1.8,72,30.47,10.0,Calm,Calm,-,N/A,,Clear,0,2014-01-09 00:15:00
6:35 PM,2.7,-3.8,74,30.48,10.0,Calm,Calm,-,N/A,,Clear,0,2014-01-09 00:35:00
6:55 PM,1.2,-3.8,79,30.48,10.0,Calm,Calm,-,N/A,,Clear,0,2014-01-09 00:55:00
7:15 PM,0.3,-4.2,81,30.48,10.0,NNE,3.5,-,N/A,,Clear,30,2014-01-09 01:15:00
7:35 PM,-2.0,-6.7,80,30.49,10.0,Calm,Calm,-,N/A,,Clear,0,2014-01-09 01:35:00
7:55 PM,-0.9,-5.8,80,30.50,10.0,North,3.5,-,N/A,,Clear,360,2014-01-09 01:55:00
8:15 PM,-1.7,-5.8,83,30.50,10.0,North,3.5,-,N/A,,Clear,10,2014-01-09 02:15:00
8:35 PM,-1.8,-6.2,82,30.49,10.0,NNE,4.6,-,N/A,,Clear,30,2014-01-09 02:35:00
8:55 PM,-2.0,-6.9,80,30.49,10.0,NNE,3.5,-,N/A,,Clear,20,2014-01-09 02:55:00
9:15 PM,0.5,-4.7,79,30.50,10.0,Calm,Calm,-,N/A,,Clear,0,2014-01-09 03:15:00
9:35 PM,-1.1,-5.6,81,30.50,10.0,Calm,Calm,-,N/A,,Clear,0,2014-01-09 03:35:00
9:55 PM,-3.5,-7.1,85,30.50,10.0,Calm,Calm,-,N/A,,Clear,0,2014-01-09 03:55:00
10:15 PM,-6.9,-12.1,78,30.51,10.0,Calm,Calm,-,N/A,,Clear,0,2014-01-09 04:15:00
10:35 PM,-7.6,-12.1,81,30.50,10.0,NE,3.5,-,N/A,,Clear,50,2014-01-09 04:35:00
10:55 PM,-6.5,-10.7,82,30.50,10.0,North,4.6,-,N/A,,Clear,10,2014-01-09 04:55:00
11:15 PM,-6.3,-10.7,82,30.50,10.0,Calm,Calm,-,N/A,,Clear,0,2014-01-09 05:15:00
11:35 PM,-5.8,-10.1,82,30.50,10.0,Calm,Calm,-,N/A,,Clear,0,2014-01-09 05:35:00
11:55 PM,-5.3,-9.9,80,30.51,10.0,North,3.5,-,N/A,,Clear,360,2014-01-09 05:55:00